Die Wichtigste » das Wetter in Italien » Friaul-Julisch Venetien » Grado » Meteograms hourly weather

Grado, Meteogramm

Grado: stundensatz wetter
Sonntag, 01 Februar
Zeit Der Niederschlag Die Temperatur Fühlt Der Druck Die Feuchtigkeit Der Wind
11:00 0.02 mm +4.9° +4.8° 742 mmHg 78% 2 m/S, N
12:00 0.02 mm +5.8° +5.6° 742 mmHg 75% 2 m/S, N
13:00 0.02 mm +6.6° +6.5° 742 mmHg 73% 2 m/S, NW
14:00 0.02 mm +6.3° +6.1° 742 mmHg 76% 2 m/S, NW
15:00 0.02 mm +5.9° +5.8° 743 mmHg 78% 2 m/S, NW
16:00 0.02 mm +5.5° +5.4° 743 mmHg 81% 2 m/S, NW
17:00 0.01 mm +4.2° +4.1° 744 mmHg 83% 1 m/S, NW
18:00 0.01 mm +2.9° +2.8° 744 mmHg 84% 1 m/S, NW
19:00 0.01 mm +1.5° +1.5° 745 mmHg 85% 1 m/S, N
20:00 0 mm +1.2° +1.2° 746 mmHg 85% 1 m/S, N
21:00 0 mm +0.9° +0.8° 746 mmHg 84% 2 m/S, NO
22:00 0 mm +0.6° +0.5° 747 mmHg 84% 2 m/S, NO
23:00 0 mm -0° -0.1° 747 mmHg 84% 2 m/S, NO
Montag, 02 Februar
Zeit Der Niederschlag Die Temperatur Fühlt Der Druck Die Feuchtigkeit Der Wind
00:00 0 mm -0.7° -0.8° 748 mmHg 84% 2 m/S, NO
01:00 0 mm -1.3° -1.4° 748 mmHg 84% 2 m/S, NO
02:00 0 mm -1.4° -1.6° 748 mmHg 83% 2 m/S, NO
03:00 0 mm -1.6° -1.7° 748 mmHg 81% 2 m/S, NO
04:00 0 mm -1.7° -1.8° 748 mmHg 80% 2 m/S, NO
05:00 0 mm -1.7° -1.9° 749 mmHg 79% 2 m/S, NO
06:00 0 mm -1.7° -1.9° 749 mmHg 79% 2 m/S, NO
07:00 0 mm -1.8° -2° 750 mmHg 78% 2 m/S, NO
08:00 0 mm +0.1° -0.1° 750 mmHg 76% 2 m/S, NO
09:00 0 mm +1.9° +1.7° 750 mmHg 74% 2 m/S, NO
10:00 0 mm +3.8° +3.5° 751 mmHg 72% 2 m/S, NO
11:00 0 mm +4.8° +4.5° 751 mmHg 69% 2 m/S, NO
12:00 0 mm +5.7° +5.4° 750 mmHg 66% 1 m/S, N
13:00 0 mm +6.7° +6.3° 750 mmHg 63% 1 m/S, N
14:00 0 mm +6.2° +5.9° 750 mmHg 67% 1 m/S, N
15:00 0 mm +5.7° +5.4° 750 mmHg 70% 1 m/S, N
16:00 0 mm +5.2° +5° 750 mmHg 74% 0 m/S, N
17:00 0 mm +3.1° +2.9° 751 mmHg 76% 1 m/S, N
18:00 0 mm +1° +0.9° 751 mmHg 79% 1 m/S, N
19:00 0 mm -1.1° -1.2° 751 mmHg 81% 1 m/S, N
20:00 0 mm -1.1° -1.3° 752 mmHg 81% 1 m/S, N
21:00 0 mm -1.2° -1.3° 752 mmHg 81% 1 m/S, NO
22:00 0 mm -1.3° -1.4° 752 mmHg 81% 1 m/S, NO
23:00 0 mm -1.3° -1.4° 752 mmHg 81% 1 m/S, NO
Dienstag, 03 Februar
Zeit Der Niederschlag Die Temperatur Fühlt Der Druck Die Feuchtigkeit Der Wind
00:00 0 mm -1.3° -1.5° 752 mmHg 81% 2 m/S, NO
01:00 0 mm -1.3° -1.5° 752 mmHg 81% 2 m/S, O
02:00 0 mm -1.2° -1.4° 752 mmHg 80% 2 m/S, O
03:00 0 mm -1.1° -1.2° 752 mmHg 80% 2 m/S, O
04:00 0 mm -0.9° -1.1° 751 mmHg 79% 3 m/S, O
05:00 0.19 mm -0.4° -0.6° 751 mmHg 80% 3 m/S, O
06:00 0.19 mm +0.2° -0° 751 mmHg 80% 3 m/S, O
07:00 0.19 mm +0.7° +0.6° 751 mmHg 81% 3 m/S, O
08:00 0.38 mm +1.5° +1.4° 751 mmHg 83% 3 m/S, O
09:00 0.38 mm +2.3° +2.3° 751 mmHg 84% 4 m/S, O
10:00 0.38 mm +3.1° +3.1° 751 mmHg 86% 4 m/S, O

Auch

Meteograms hourly weather Die Wetterkarte Wetterübersicht
Meteograms hourly weather Die Wetterkarte Wetterübersicht

Market


Wetter widget


 
das Wetter in Österreich:
Über das Projekt
© meteoprog.at 2003-2015.
Meteoprog.ua - погода в Украине 0.0592
sitemap